Weather in Yavne

Israel     31°52′30″N   34°44′03″E
temp.,
°C
wind,
m/s
gust,
m/s
humid.,
%
clouds,
%
prec.,
mm/h
press.,
hPa
HPBL,
m
22 january, fri
fri2223:00+12ne46560 0.0 1029338
02:00+11ne56580 0.0 1028254
05:00+11ene45500 0.0 1027224
08:00+11ese47420 0.0 1027277
11:00+16se57320 0.0 1027747
14:00+17ese56300 0.0 10231035
17:00+15ene57300 0.0 1023474
20:00+14ene473035 0.0 1023332
23 january, sat
sat2323:00+13e5830100 0.0 1023291
02:00+13ese472883 0.0 1021280
05:00+11se463397 0.0 1021216
08:00+12ese353391 0.0 1021168
11:00+16sse232458 0.0 1021468
14:00+17sw122629 0.0 1019628
17:00+15wnw12350 0.0 1019276
20:00+14ese12400 0.0 1020131
24 january, sun
sun2423:00+13se12390 0.0 102091
02:00+12se11360 0.0 101977
05:00+12se11360 0.0 101969
08:00+13s22410 0.0 1021113
11:00+16s224193 0.0 1020366
14:00+17wnw324197 0.0 1018535
17:00+15nw23433 0.0 1019316
20:00+14ne12492 0.0 1020194
25 january, mon
mon2523:00+13ese11510 0.0 102076
02:00+13ssw11520 0.0 101985
05:00+13sse11540 0.0 1019197
08:00+13sse33550 0.0 1021107
11:00+16ssw22480 0.0 1021455
14:00+17w32460 0.0 1020640
17:00+16wnw23520 0.0 1020270
20:00+15n22540 0.0 1021216
26 january, tue
tue2623:00+14ene226074 0.0 1020124
02:00+14nne225887 0.0 1020128
05:00+13nne1262100 0.0 1019160
08:00+14ne116195 0.0 1021154
11:00+17wnw104483 0.0 1020330
14:00+17nw224392 0.0 1017404
17:00+16n3451100 0.0 1017269
20:00+16nne4568100 0.0 1017290